Location: Christian Reformed Church
(43.0975°N, 93.8113°W)
Time: 16:48:16
(UTC+00:00)

AQUARIUS - Pass Details

Date: 13 December 2025
Orbit: 634 x 635 km, 98.0° (Epoch: 16 January)

Event Time Altitude Azimuth Distance (km) Brightness Sun altitude
Rises 23:40:30 0° 154° (SSE) 2,920 7.5 -10.6°
Reaches altitude 10° 23:42:43 10° 150° (SSE) 2,016 6.6 -11.0°
Maximum altitude 23:47:00 54° 73° (ENE) 773 4.2 -11.7°
Drops below altitude 10° 23:51:19 10° 356° (N) 2,031 6.5 -12.4°
Sets 23:53:33 0° 352° (N) 2,944 7.4 -12.8°
